• In Uzbekistan
  • List of Countries
  • For 7 days
  • Water Temperature
  • Satellite Maps
  • Weather Map
  • Weather Widgets
  • user-avatar
    Login

    Hourly Weather Khashuri

    Today, 18 February, Sunday

    Time Temperature Precipitation Wind Pressure Humidity
    00:00 -2°C° 0 mm 1 mps 611 mmHg 81%
    01:00 -2°C° 0.2 mm 1 mps 610 mmHg 82%
    02:00 -2°C° 0.2 mm 1 mps 610 mmHg 84%
    03:00 -1°C° 0 mm 1 mps 610 mmHg 86%
    04:00 -2°C° 0.3 mm 1 mps 610 mmHg 86%
    05:00 -2°C° 0.3 mm 1 mps 610 mmHg 87%
    06:00 -2°C° 0.3 mm 1 mps 609 mmHg 88%
    07:00 -1°C° 0.1 mm 1 mps 609 mmHg 86%
    08:00 -1°C° 0.1 mm 1 mps 610 mmHg 85%
    09:00 -1°C° 0.1 mm 1 mps 610 mmHg 83%
    10:00 0°C° 0.1 mm 1 mps 610 mmHg 82%
    11:00 +1°C° 0.1 mm 1 mps 610 mmHg 81%
    12:00 +1°C° 0.1 mm 2 mps 609 mmHg 80%
    13:00 +1°C° 0.1 mm 2 mps 609 mmHg 81%
    14:00 -1°C° 0.1 mm 2 mps 609 mmHg 83%
    15:00 -1°C° 0.1 mm 3 mps 609 mmHg 84%
    16:00 -1°C° 0.2 mm 3 mps 609 mmHg 87%
    17:00 -2°C° 0.2 mm 3 mps 609 mmHg 89%
    18:00 -4°C° 0.2 mm 3 mps 609 mmHg 92%
    19:00 -4°C° 0.1 mm 3 mps 609 mmHg 92%
    20:00 -3°C° 0.1 mm 2 mps 609 mmHg 92%
    21:00 -3°C° 0.1 mm 2 mps 609 mmHg 92%
    22:00 -4°C° 0.1 mm 2 mps 609 mmHg 92%
    23:00 -4°C° 0.1 mm 2 mps 610 mmHg 92%

    Tomorrow, 19 February, Monday

    Time Temperature Precipitation Wind Pressure Humidity
    00:00 -4°C° 0.1 mm 2 mps 610 mmHg 92%
    01:00 -4°C° 0.1 mm 2 mps 610 mmHg 92%
    02:00 -4°C° 0.1 mm 2 mps 610 mmHg 93%
    03:00 -4°C° 0.1 mm 2 mps 610 mmHg 93%
    04:00 -4°C° 0.1 mm 2 mps 610 mmHg 93%
    05:00 -3°C° 0.1 mm 1 mps 610 mmHg 93%
    06:00 -3°C° 0.1 mm 1 mps 610 mmHg 93%
    07:00 -2°C° 0 mm 1 mps 610 mmHg 91%
    08:00 -2°C° 0 mm 1 mps 610 mmHg 89%
    09:00 -1°C° 0 mm 1 mps 610 mmHg 87%
    10:00 0°C° 0 mm 1 mps 611 mmHg 85%
    11:00 0°C° 0 mm 1 mps 611 mmHg 82%
    12:00 +1°C° 0 mm 1 mps 611 mmHg 79%
    13:00 +1°C° 0 mm 1 mps 611 mmHg 79%
    14:00 +2°C° 0 mm 1 mps 610 mmHg 78%
    15:00 +2°C° 0 mm 1 mps 610 mmHg 78%
    16:00 +1°C° 0 mm 1 mps 610 mmHg 81%
    17:00 -1°C° 0 mm 1 mps 610 mmHg 83%
    18:00 -2°C° 0 mm 1 mps 609 mmHg 86%
    19:00 -2°C° 0 mm 1 mps 610 mmHg 86%
    20:00 -3°C° 0 mm 1 mps 610 mmHg 85%
    21:00 -3°C° 0 mm 1 mps 610 mmHg 85%
    22:00 -3°C° 0 mm 1 mps 610 mmHg 83%
    23:00 -4°C° 0 mm 1 mps 610 mmHg 81%

    Day after tomorrow, 20 February, Tuesday

    Time Temperature Precipitation Wind Pressure Humidity
    00:00 -4°C° 0 mm 1 mps 610 mmHg 79%
    01:00 -4°C° 0 mm 1 mps 610 mmHg 77%
    02:00 -6°C° 0 mm 2 mps 610 mmHg 75%
    03:00 -6°C° 0 mm 2 mps 610 mmHg 73%
    04:00 -6°C° 0 mm 2 mps 609 mmHg 72%
    05:00 -6°C° 0 mm 2 mps 609 mmHg 71%
    06:00 -6°C° 0 mm 2 mps 609 mmHg 70%
    07:00 -5°C° 0 mm 2 mps 610 mmHg 69%
    08:00 -2°C° 0 mm 1 mps 610 mmHg 68%
    09:00 -1°C° 0 mm 1 mps 611 mmHg 67%
    10:00 0°C° 0 mm 1 mps 611 mmHg 66%
    11:00 +1°C° 0 mm 1 mps 611 mmHg 65%
    12:00 +3°C° 0 mm 1 mps 611 mmHg 64%
    13:00 +3°C° 0 mm 1 mps 611 mmHg 65%
    14:00 +3°C° 0 mm 1 mps 611 mmHg 66%
    15:00 +3°C° 0 mm 1 mps 611 mmHg 67%
    16:00 +2°C° 0 mm 1 mps 611 mmHg 70%
    17:00 +1°C° 0 mm 1 mps 610 mmHg 73%
    18:00 -1°C° 0 mm 1 mps 610 mmHg 77%
    19:00 -1°C° 0 mm 1 mps 610 mmHg 77%
    20:00 -2°C° 0 mm 1 mps 610 mmHg 78%
    21:00 -2°C° 0 mm 1 mps 610 mmHg 78%
    22:00 -2°C° 0 mm 1 mps 610 mmHg 78%
    23:00 -3°C° 0 mm 1 mps 610 mmHg 78%

    21 February, Wednesday

    Time Temperature Precipitation Wind Pressure Humidity
    00:00 -3°C° 0 mm 1 mps 610 mmHg 78%
    01:00 -3°C° 0 mm 1 mps 610 mmHg 78%
    02:00 -3°C° 0 mm 1 mps 610 mmHg 78%
    03:00 -4°C° 0 mm 1 mps 610 mmHg 78%
    04:00 -4°C° 0 mm 1 mps 610 mmHg 78%
    05:00 -4°C° 0 mm 1 mps 610 mmHg 79%
    06:00 -4°C° 0 mm 1 mps 610 mmHg 79%
    07:00 -3°C° 0 mm 1 mps 610 mmHg 77%
    08:00 -4°C° 0 mm 2 mps 610 mmHg 76%
    09:00 -3°C° 0 mm 2 mps 611 mmHg 74%
    10:00 -2°C° 0 mm 2 mps 611 mmHg 73%
    11:00 -1°C° 0 mm 2 mps 611 mmHg 71%
    12:00 +2°C° 0 mm 2 mps 611 mmHg 70%
    13:00 +2°C° 0 mm 2 mps 611 mmHg 70%
    14:00 +2°C° 0 mm 2 mps 611 mmHg 70%
    15:00 +3°C° 0 mm 1 mps 610 mmHg 70%
    16:00 +2°C° 0 mm 1 mps 610 mmHg 73%
    17:00 +1°C° 0 mm 1 mps 610 mmHg 76%
    18:00 0°C° 0 mm 1 mps 610 mmHg 79%
    19:00 -1°C° 0 mm 1 mps 610 mmHg 80%
    20:00 -1°C° 0 mm 1 mps 610 mmHg 80%
    21:00 -3°C° 0 mm 2 mps 610 mmHg 81%
    22:00 -4°C° 0 mm 2 mps 610 mmHg 81%
    23:00 -4°C° 0 mm 2 mps 610 mmHg 81%

    22 February, Thursday

    Time Temperature Precipitation Wind Pressure Humidity
    00:00 -4°C° 0 mm 2 mps 610 mmHg 81%
    01:00 -4°C° 0 mm 2 mps 610 mmHg 81%
    02:00 -4°C° 0 mm 2 mps 610 mmHg 81%
    03:00 -5°C° 0 mm 2 mps 610 mmHg 81%
    04:00 -5°C° 0 mm 2 mps 610 mmHg 81%
    05:00 -5°C° 0 mm 2 mps 610 mmHg 81%
    06:00 -5°C° 0 mm 2 mps 610 mmHg 81%
    07:00 -4°C° 0 mm 2 mps 610 mmHg 79%
    08:00 -3°C° 0 mm 2 mps 610 mmHg 77%
    09:00 -2°C° 0 mm 2 mps 610 mmHg 75%
    10:00 -1°C° 0 mm 2 mps 611 mmHg 73%
    11:00 +1°C° 0 mm 2 mps 611 mmHg 72%
    12:00 +3°C° 0 mm 2 mps 611 mmHg 70%
    13:00 +3°C° 0 mm 2 mps 610 mmHg 69%
    14:00 +3°C° 0 mm 2 mps 610 mmHg 69%
    15:00 +3°C° 0 mm 2 mps 610 mmHg 68%
    16:00 +2°C° 0 mm 2 mps 610 mmHg 71%
    17:00 +1°C° 0 mm 2 mps 610 mmHg 74%
    18:00 -1°C° 0 mm 2 mps 609 mmHg 77%
    19:00 -2°C° 0 mm 2 mps 609 mmHg 78%
    20:00 -3°C° 0 mm 2 mps 609 mmHg 78%
    21:00 -3°C° 0 mm 2 mps 609 mmHg 78%
    22:00 -4°C° 0 mm 2 mps 609 mmHg 78%
    23:00 -4°C° 0 mm 2 mps 609 mmHg 78%

    23 February, Friday

    Time Temperature Precipitation Wind Pressure Humidity
    00:00 -4°C° 0 mm 2 mps 609 mmHg 78%
    01:00 -4°C° 0 mm 2 mps 609 mmHg 78%
    02:00 -4°C° 0 mm 2 mps 609 mmHg 78%
    03:00 -5°C° 0 mm 2 mps 608 mmHg 78%
    04:00 -5°C° 0 mm 2 mps 608 mmHg 78%
    05:00 -5°C° 0 mm 2 mps 608 mmHg 78%
    06:00 -5°C° 0 mm 2 mps 608 mmHg 78%
    07:00 -4°C° 0 mm 2 mps 608 mmHg 76%
    08:00 -4°C° 0 mm 3 mps 608 mmHg 74%
    09:00 -2°C° 0 mm 3 mps 609 mmHg 72%
    10:00 -1°C° 0 mm 3 mps 609 mmHg 70%
    11:00 +1°C° 0 mm 3 mps 609 mmHg 68%
    12:00 +2°C° 0 mm 3 mps 609 mmHg 67%
    13:00 +2°C° 0 mm 3 mps 609 mmHg 67%
    14:00 +2°C° 0 mm 3 mps 609 mmHg 67%
    15:00 +3°C° 0 mm 3 mps 608 mmHg 67%
    16:00 +1°C° 0 mm 3 mps 608 mmHg 70%
    17:00 0°C° 0 mm 3 mps 608 mmHg 73%
    18:00 -1°C° 0 mm 3 mps 608 mmHg 76%
    19:00 -1°C° 0 mm 3 mps 608 mmHg 77%
    20:00 -2°C° 0 mm 3 mps 608 mmHg 78%
    21:00 -2°C° 0 mm 3 mps 608 mmHg 78%
    22:00 -4°C° 0 mm 3 mps 608 mmHg 78%
    23:00 -4°C° 0 mm 3 mps 608 mmHg 78%
    Show more